Simultaneous Nadir Overpasses (SNOs) Predictions

Prediction of SNOs between AQUA and GOES-15 Satellite Orbit:

Table of predicted SNOs for the next 14.0 days since TLE Epoch: 5/31/2014
Index Date Time (AQUA) AQUA Lat,Lon GOES-15 Lat,Lon Distance(km) Time Diff (sec)
1 06/01/2014 10:20:14 -0.82,-131.20 -0.00,-135.18 451.70 80
2 06/01/2014 22:41:39 -0.26,-136.40 0.01,-135.18 138.15 80
3 06/03/2014 22:29:29 0.42,-133.45 0.01,-135.24 203.89 80
4 06/04/2014 10:50:44 0.71,-138.61 -0.02,-135.26 380.48 80
5 06/06/2014 10:38:33 0.08,-135.65 -0.01,-135.31 39.06 80
6 06/08/2014 10:26:22 -0.56,-132.70 -0.02,-135.36 301.83 80
7 06/08/2014 22:47:46 -0.50,-137.90 0.03,-135.36 288.53 80
8 06/10/2014 22:35:35 0.15,-134.95 0.03,-135.40 51.36 80
9 06/12/2014 22:23:24 0.75,-131.99 0.03,-135.43 390.31 80
10 06/13/2014 10:44:39 0.31,-137.16 -0.04,-135.44 194.92 80




NCC Satellite Simultaneous Nadir Overpasses (SNOs) Prediction Service
